IRM027 OOMS-LRCL

Flight info

Callsign IRM027
Flight time 5h 12m
Altitude 34000
Route MCT T508 SOLUD P574 NORGA/N0491F350 R401 GABKO/N0494F340 M317 ROTAL P574 SYZ P550 REXEB/N0487F360 P550 DASIS UL746 ODERO L621 REVDA DCT RIPGA DCT DOKUD
Aircraft A346/H-SDE2E3FGHIJ3J4J5M1RWXY/LB1D1

Departure

Time 2026-05-06 15:15
Airport Muscat International Airport (OOMS)

Arrival

Time 2026-05-06 20:27
Airport Avram Iancu Cluj International Airport (LRCL)
Time Latitude Longitude Altitude Speed Heading
2026-05-06 14:33 23.60464 58.28748 48 ft 0 kts 265°
2026-05-06 14:57 23.60464 58.28749 49 ft 1 kts 265°
2026-05-06 14:57 23.60465 58.28766 50 ft 2 kts 265°
2026-05-06 14:57 23.60467 58.28782 51 ft 2 kts 265°
2026-05-06 14:58 23.60468 58.28798 52 ft 2 kts 265°
2026-05-06 14:58 23.60469 58.28814 51 ft 2 kts 268°
2026-05-06 14:58 23.60467 58.28831 50 ft 2 kts 296°
2026-05-06 14:58 23.60458 58.28844 49 ft 2 kts 318°
2026-05-06 14:59 23.60446 58.28853 48 ft 2 kts 339°
2026-05-06 14:59 23.60436 58.28856 48 ft 0 kts 354°
2026-05-06 14:59 23.60446 58.28854 48 ft 4 kts 351°
2026-05-06 14:59 23.60480 58.28850 48 ft 2 kts 355°
2026-05-06 15:00 23.60486 58.28850 48 ft 0 kts 355°
2026-05-06 15:03 23.60499 58.28849 48 ft 3 kts 355°
2026-05-06 15:03 23.60531 58.28844 48 ft 5 kts 344°
2026-05-06 15:04 23.60563 58.28815 48 ft 7 kts 296°
2026-05-06 15:04 23.60568 58.28758 48 ft 4 kts 265°
2026-05-06 15:04 23.60565 58.28731 48 ft 5 kts 265°
2026-05-06 15:04 23.60561 58.28678 48 ft 8 kts 265°
2026-05-06 15:05 23.60555 58.28603 48 ft 10 kts 265°
2026-05-06 15:05 23.60547 58.28511 48 ft 12 kts 265°
2026-05-06 15:05 23.60539 58.28408 48 ft 13 kts 265°
2026-05-06 15:05 23.60530 58.28293 48 ft 15 kts 265°
2026-05-06 15:06 23.60521 58.28175 48 ft 16 kts 265°
2026-05-06 15:06 23.60511 58.28050 48 ft 16 kts 265°
2026-05-06 15:06 23.60502 58.27940 48 ft 12 kts 264°
2026-05-06 15:06 23.60494 58.27856 48 ft 11 kts 265°
2026-05-06 15:07 23.60487 58.27761 48 ft 13 kts 265°
2026-05-06 15:07 23.60478 58.27655 48 ft 14 kts 265°
2026-05-06 15:07 23.60469 58.27539 48 ft 15 kts 265°
2026-05-06 15:07 23.60461 58.27447 48 ft 10 kts 265°
2026-05-06 15:08 23.60455 58.27361 48 ft 12 kts 265°
2026-05-06 15:08 23.60447 58.27262 48 ft 13 kts 265°
2026-05-06 15:08 23.60438 58.27152 48 ft 15 kts 265°
2026-05-06 15:08 23.60429 58.27033 48 ft 16 kts 265°
2026-05-06 15:09 23.60420 58.26912 48 ft 12 kts 264°
2026-05-06 15:09 23.60411 58.26814 48 ft 13 kts 264°
2026-05-06 15:09 23.60401 58.26705 48 ft 14 kts 264°
2026-05-06 15:09 23.60391 58.26588 48 ft 16 kts 264°
2026-05-06 15:10 23.60380 58.26462 48 ft 16 kts 265°
2026-05-06 15:10 23.60369 58.26333 48 ft 17 kts 265°
2026-05-06 15:10 23.60360 58.26197 48 ft 17 kts 265°
2026-05-06 15:10 23.60350 58.26060 48 ft 18 kts 265°
2026-05-06 15:11 23.60340 58.25935 48 ft 16 kts 264°
2026-05-06 15:11 23.60331 58.25838 49 ft 8 kts 263°
2026-05-06 15:11 23.60330 58.25765 49 ft 9 kts 290°
2026-05-06 15:11 23.60365 58.25732 49 ft 5 kts 343°
2026-05-06 15:12 23.60414 58.25716 49 ft 8 kts 347°
2026-05-06 15:12 23.60477 58.25711 49 ft 9 kts
2026-05-06 15:12 23.60537 58.25735 48 ft 10 kts 32°
2026-05-06 15:12 23.60585 58.25795 48 ft 10 kts 61°
2026-05-06 15:13 23.60593 58.25832 48 ft 0 kts 83°
2026-05-06 15:13 23.60598 58.25883 48 ft 24 kts 84°
2026-05-06 15:13 23.60632 58.26306 48 ft 85 kts 84°
2026-05-06 15:14 23.60700 58.27137 48 ft 135 kts 85°
2026-05-06 15:14 23.60797 58.28331 49 ft 177 kts 85°
2026-05-06 15:14 23.60918 58.29749 216 ft 193 kts 82°
2026-05-06 15:14 23.61445 58.31092 572 ft 194 kts 47°
2026-05-06 15:15 23.62551 58.31857 1085 ft 190 kts 13°
2026-05-06 15:15 23.63842 58.31702 1484 ft 193 kts 332°
2026-05-06 15:15 23.64767 58.30660 1843 ft 197 kts 292°
2026-05-06 15:15 23.65069 58.29180 2103 ft 205 kts 278°
2026-05-06 15:16 23.65266 58.27596 2342 ft 217 kts 278°
2026-05-06 15:16 23.65483 58.25926 2654 ft 226 kts 278°
2026-05-06 15:16 23.65688 58.24219 3025 ft 232 kts 277°
2026-05-06 15:16 23.65891 58.22469 3420 ft 231 kts 277°
2026-05-06 15:17 23.66086 58.20740 3723 ft 233 kts 277°
2026-05-06 15:17 23.66283 58.18951 3930 ft 242 kts 277°
2026-05-06 15:17 23.66483 58.17049 4009 ft 260 kts 277°
2026-05-06 15:17 23.66694 58.15021 4165 ft 275 kts 279°
2026-05-06 15:18 23.66976 58.12911 4403 ft 288 kts 279°
2026-05-06 15:18 23.67248 58.10721 4727 ft 297 kts 278°
2026-05-06 15:18 23.67502 58.08495 5189 ft 300 kts 277°
2026-05-06 15:18 23.67757 58.06239 5832 ft 296 kts 278°
2026-05-06 15:19 23.68007 58.04055 6504 ft 292 kts 277°
2026-05-06 15:19 23.68245 58.01855 7105 ft 291 kts 278°
2026-05-06 15:19 23.68522 57.99666 7651 ft 294 kts 278°
2026-05-06 15:19 23.68818 57.97491 8214 ft 295 kts 278°
2026-05-06 15:20 23.69134 57.95281 8815 ft 295 kts 278°
2026-05-06 15:20 23.69538 57.93088 9413 ft 296 kts 290°
2026-05-06 15:20 23.70508 57.91131 9898 ft 300 kts 304°
2026-05-06 15:20 23.71760 57.89261 10310 ft 306 kts 307°
2026-05-06 15:21 23.73059 57.87389 10591 ft 320 kts 307°
2026-05-06 15:21 23.74433 57.85415 10813 ft 333 kts 307°
2026-05-06 15:21 23.75878 57.83385 11039 ft 346 kts 308°
2026-05-06 15:21 23.77408 57.81262 11281 ft 359 kts 308°
2026-05-06 15:22 23.78971 57.79100 11478 ft 372 kts 309°
2026-05-06 15:22 23.80602 57.76841 11716 ft 384 kts 309°
2026-05-06 15:22 23.82268 57.74530 12060 ft 391 kts 309°
2026-05-06 15:22 23.83974 57.72162 12602 ft 395 kts 309°
2026-05-06 15:23 23.85671 57.69804 13069 ft 399 kts 309°
2026-05-06 15:23 23.87386 57.67418 13601 ft 402 kts 309°
2026-05-06 15:23 23.89116 57.65015 14149 ft 405 kts 309°
2026-05-06 15:23 23.90864 57.62581 14618 ft 408 kts 309°
2026-05-06 15:24 23.92600 57.60164 15117 ft 411 kts 309°
2026-05-06 15:24 23.94373 57.57693 15550 ft 414 kts 309°
2026-05-06 15:24 23.96147 57.55218 16015 ft 416 kts 310°
2026-05-06 15:24 23.97942 57.52714 16500 ft 419 kts 310°
2026-05-06 15:25 23.99751 57.50191 16991 ft 422 kts 310°
2026-05-06 15:25 24.01570 57.47657 17424 ft 425 kts 310°
2026-05-06 15:25 24.03393 57.45121 17874 ft 427 kts 310°
2026-05-06 15:25 24.05220 57.42575 18334 ft 429 kts 309°
2026-05-06 15:26 24.07082 57.39980 18799 ft 430 kts 309°
2026-05-06 15:26 24.08910 57.37427 19238 ft 432 kts 309°
2026-05-06 15:26 24.10772 57.34824 19664 ft 434 kts 308°
2026-05-06 15:26 24.12646 57.32202 20066 ft 436 kts 308°
2026-05-06 15:27 24.14512 57.29588 20469 ft 438 kts 308°
2026-05-06 15:27 24.16404 57.26937 20877 ft 439 kts 307°
2026-05-06 15:27 24.18298 57.24280 21261 ft 442 kts 307°
2026-05-06 15:27 24.20187 57.21630 21635 ft 444 kts 307°
2026-05-06 15:28 24.22077 57.18975 22017 ft 445 kts 307°
2026-05-06 15:28 24.23976 57.16307 22382 ft 447 kts 307°
2026-05-06 15:28 24.25911 57.13585 22767 ft 449 kts 307°
2026-05-06 15:28 24.27814 57.10905 23154 ft 450 kts 307°
2026-05-06 15:29 24.29737 57.08198 23534 ft 451 kts 307°
2026-05-06 15:29 24.31651 57.05503 23916 ft 453 kts 307°
2026-05-06 15:29 24.33590 57.02772 24293 ft 454 kts 306°
2026-05-06 15:29 24.35541 57.00023 24658 ft 455 kts 306°
2026-05-06 15:30 24.37470 56.97301 25005 ft 457 kts 306°
2026-05-06 15:30 24.39426 56.94540 25349 ft 459 kts 306°
2026-05-06 15:30 24.41386 56.91772 25689 ft 460 kts 306°
2026-05-06 15:30 24.43362 56.88978 26020 ft 462 kts 306°
2026-05-06 15:31 24.45326 56.86200 26367 ft 463 kts 306°
2026-05-06 15:31 24.47303 56.83402 26699 ft 464 kts 306°
2026-05-06 15:31 24.49276 56.80606 27020 ft 466 kts 306°
2026-05-06 15:32 24.53237 56.74992 27699 ft 467 kts 306°
2026-05-06 15:32 24.55223 56.72183 28169 ft 465 kts 306°
2026-05-06 15:32 24.57203 56.69389 28613 ft 463 kts 306°
2026-05-06 15:32 24.59190 56.66585 28959 ft 464 kts 306°
2026-05-06 15:33 24.61146 56.63816 29265 ft 464 kts 306°
2026-05-06 15:33 24.63121 56.61015 29554 ft 466 kts 306°
2026-05-06 15:33 24.65104 56.58202 29767 ft 467 kts 306°
2026-05-06 15:33 24.67095 56.55376 29775 ft 468 kts 306°
2026-05-06 15:34 24.71103 56.49690 29784 ft 468 kts 306°
2026-05-06 15:34 24.75058 56.44067 29793 ft 469 kts 305°
2026-05-06 15:35 24.79051 56.38381 29803 ft 468 kts 305°
2026-05-06 15:35 24.82976 56.32630 29828 ft 468 kts 304°
2026-05-06 15:36 24.86837 56.26770 29848 ft 477 kts 302°
2026-05-06 15:36 24.90310 56.20584 29870 ft 476 kts 297°
2026-05-06 15:37 24.93571 56.14245 29879 ft 476 kts 297°
2026-05-06 15:37 24.96825 56.07895 29887 ft 476 kts 297°
2026-05-06 15:38 25.00201 56.01644 29874 ft 477 kts 299°
2026-05-06 15:38 25.04353 55.95910 29848 ft 485 kts 317°
2026-05-06 15:39 25.07146 55.93800 29851 ft 491 kts 328°
2026-05-06 15:39 25.10277 55.92267 29854 ft 497 kts 338°
2026-05-06 15:39 25.17176 55.90915 29850 ft 504 kts 349°
2026-05-06 15:40 25.24151 55.90087 29843 ft 504 kts 350°
2026-05-06 15:40 25.30938 55.89274 29836 ft 503 kts 349°
2026-05-06 15:41 25.37940 55.88419 29818 ft 503 kts 349°
2026-05-06 15:41 25.44918 55.87558 29812 ft 504 kts 349°
2026-05-06 15:42 25.51888 55.86696 29804 ft 504 kts 349°
2026-05-06 15:42 25.58863 55.85834 29796 ft 503 kts 349°
2026-05-06 15:43 25.65833 55.84969 29786 ft 503 kts 349°
2026-05-06 15:43 25.72769 55.84109 29784 ft 502 kts 349°
2026-05-06 15:44 25.79766 55.83240 29780 ft 502 kts 349°
2026-05-06 15:44 25.86676 55.82380 29770 ft 502 kts 349°
2026-05-06 15:45 25.93648 55.81511 29769 ft 504 kts 349°
2026-05-06 15:45 26.00627 55.80639 29772 ft 503 kts 349°
2026-05-06 15:46 26.07584 55.79809 29778 ft 504 kts 351°
2026-05-06 15:46 26.14539 55.78972 29765 ft 497 kts 341°
2026-05-06 15:47 26.17788 55.77723 29775 ft 489 kts 330°
2026-05-06 15:47 26.20723 55.75858 29778 ft 483 kts 321°
2026-05-06 15:47 26.25437 55.70694 29785 ft 475 kts 306°
2026-05-06 15:48 26.29551 55.64964 29777 ft 475 kts 305°
2026-05-06 15:48 26.33681 55.59204 29777 ft 474 kts 305°
2026-05-06 15:49 26.37790 55.53493 29776 ft 474 kts 305°
2026-05-06 15:49 26.41949 55.47750 29777 ft 474 kts 306°
2026-05-06 15:50 26.46076 55.42058 29776 ft 474 kts 306°
2026-05-06 15:50 26.50223 55.36321 29777 ft 474 kts 306°
2026-05-06 15:51 26.53644 55.31584 29781 ft 474 kts 305°
2026-05-06 15:51 26.58476 55.24889 29784 ft 474 kts 305°
2026-05-06 15:52 26.62604 55.19151 29784 ft 474 kts 305°
2026-05-06 15:52 26.66724 55.13417 29791 ft 474 kts 305°
2026-05-06 15:53 26.70838 55.07677 29797 ft 473 kts 305°
2026-05-06 15:53 26.74932 55.01955 29802 ft 473 kts 305°
2026-05-06 15:54 26.79034 54.96221 29808 ft 473 kts 305°
2026-05-06 15:54 26.83134 54.90474 29813 ft 473 kts 304°
2026-05-06 15:55 26.87225 54.84723 29823 ft 473 kts 304°
2026-05-06 15:55 26.91315 54.78959 29837 ft 473 kts 304°
2026-05-06 15:56 26.95424 54.73159 29859 ft 473 kts 304°
2026-05-06 15:56 26.99499 54.67401 29885 ft 473 kts 304°
2026-05-06 15:57 27.03583 54.61620 29909 ft 472 kts 304°
2026-05-06 15:57 27.07628 54.55888 29929 ft 473 kts 304°
2026-05-06 15:58 27.11730 54.50064 29945 ft 473 kts 304°
2026-05-06 15:58 27.15795 54.44291 29963 ft 472 kts 304°
2026-05-06 15:59 27.19865 54.38499 29993 ft 472 kts 304°
2026-05-06 15:59 27.23922 54.32716 30038 ft 472 kts 304°
2026-05-06 16:00 27.27980 54.26926 30079 ft 472 kts 303°
2026-05-06 16:00 27.32028 54.21142 30090 ft 472 kts 303°
2026-05-06 16:01 27.36097 54.15320 30075 ft 473 kts 303°
2026-05-06 16:01 27.40130 54.09539 30064 ft 472 kts 303°
2026-05-06 16:02 27.44179 54.03728 30041 ft 472 kts 303°
2026-05-06 16:02 27.48222 53.97913 30016 ft 472 kts 303°
2026-05-06 16:03 27.52498 53.92234 29992 ft 477 kts 310°
2026-05-06 16:03 27.57527 53.87359 29993 ft 484 kts 319°
2026-05-06 16:04 27.62316 53.83941 30004 ft 489 kts 324°
2026-05-06 16:04 27.68230 53.80179 30011 ft 489 kts 325°
2026-05-06 16:05 27.75154 53.75803 30015 ft 489 kts 325°
2026-05-06 16:05 27.81106 53.72026 30022 ft 489 kts 325°
2026-05-06 16:06 27.86016 53.68902 30035 ft 489 kts 324°
2026-05-06 16:06 27.92942 53.64491 30055 ft 488 kts 324°
2026-05-06 16:07 27.97884 53.61337 30070 ft 489 kts 324°
2026-05-06 16:07 28.03796 53.57560 30089 ft 489 kts 324°
2026-05-06 16:08 28.10709 53.53138 30103 ft 489 kts 324°
2026-05-06 16:08 28.15639 53.49978 30095 ft 488 kts 324°
2026-05-06 16:09 28.21530 53.46200 30083 ft 489 kts 324°
2026-05-06 16:09 28.27455 53.42394 30074 ft 488 kts 324°
2026-05-06 16:10 28.34348 53.37961 30098 ft 488 kts 324°
2026-05-06 16:10 28.40261 53.34151 30129 ft 487 kts 324°
2026-05-06 16:11 28.46180 53.30332 30160 ft 487 kts 324°
2026-05-06 16:11 28.52065 53.26528 30173 ft 487 kts 324°
2026-05-06 16:12 28.56959 53.23343 30199 ft 487 kts 323°
2026-05-06 16:12 28.63781 53.18863 30259 ft 486 kts 323°
2026-05-06 16:13 28.68659 53.15651 30292 ft 485 kts 323°
2026-05-06 16:13 28.75472 53.11159 30352 ft 485 kts 323°
2026-05-06 16:14 28.80348 53.07941 30376 ft 485 kts 323°
2026-05-06 16:14 28.86190 53.04079 30377 ft 486 kts 323°
2026-05-06 16:15 28.92037 53.00206 30364 ft 486 kts 323°
2026-05-06 16:15 28.98850 52.95687 30352 ft 486 kts 323°
2026-05-06 16:16 29.04692 52.91810 30367 ft 485 kts 323°
2026-05-06 16:16 29.09550 52.88591 30369 ft 487 kts 323°
2026-05-06 16:17 29.16413 52.84038 30374 ft 486 kts 323°
2026-05-06 16:17 29.22253 52.80151 30357 ft 486 kts 323°
2026-05-06 16:18 29.27097 52.76924 30337 ft 485 kts 323°
2026-05-06 16:18 29.33938 52.72355 30306 ft 486 kts 323°
2026-05-06 16:19 29.38812 52.69094 30292 ft 486 kts 323°
2026-05-06 16:19 29.44682 52.65160 30276 ft 486 kts 322°
2026-05-06 16:20 29.50471 52.61077 30246 ft 482 kts 318°
2026-05-06 16:20 29.56476 52.55414 30236 ft 473 kts 309°
2026-05-06 16:21 29.60916 52.49920 30249 ft 469 kts 305°
2026-05-06 16:21 29.65223 52.44255 30295 ft 469 kts 304°
2026-05-06 16:22 29.68795 52.39547 30312 ft 469 kts 305°
2026-05-06 16:22 29.73088 52.33894 30358 ft 468 kts 304°
2026-05-06 16:23 29.77367 52.28249 30403 ft 468 kts 304°
2026-05-06 16:23 29.82342 52.21700 30433 ft 470 kts 305°
2026-05-06 16:24 29.87055 52.16418 30424 ft 477 kts 312°
2026-05-06 16:24 29.91439 52.12496 30414 ft 483 kts 317°
2026-05-06 16:25 29.97107 52.08292 30412 ft 477 kts 320°
2026-05-06 16:25 30.02715 52.04251 30398 ft 475 kts 320°
2026-05-06 16:26 30.08287 52.00231 30406 ft 466 kts 320°
2026-05-06 16:26 30.13761 51.96269 30426 ft 463 kts 320°
2026-05-06 16:27 30.19249 51.92285 30439 ft 462 kts 320°
2026-05-06 16:27 30.24672 51.88344 30458 ft 462 kts 319°
2026-05-06 16:28 30.30121 51.84381 30471 ft 463 kts 320°
2026-05-06 16:28 30.35553 51.80428 30477 ft 456 kts 320°
2026-05-06 16:29 30.40924 51.76512 30474 ft 457 kts 320°
2026-05-06 16:29 30.46290 51.72590 30464 ft 456 kts 320°
2026-05-06 16:30 30.50775 51.69309 30447 ft 456 kts 320°
2026-05-06 16:30 30.57048 51.64718 30402 ft 456 kts 320°
2026-05-06 16:31 30.63323 51.60109 30374 ft 456 kts 320°
2026-05-06 16:31 30.67777 51.56842 30341 ft 455 kts 319°
2026-05-06 16:32 30.73110 51.52842 30324 ft 455 kts 319°
2026-05-06 16:32 30.79238 51.48128 30327 ft 454 kts 318°
2026-05-06 16:33 30.83640 51.44735 30345 ft 455 kts 318°
2026-05-06 16:34 30.91586 51.38610 30391 ft 456 kts 318°
2026-05-06 16:34 30.97769 51.33836 30416 ft 455 kts 317°
2026-05-06 16:35 31.03054 51.29750 30428 ft 453 kts 317°
2026-05-06 16:35 31.08328 51.25669 30420 ft 453 kts 317°
2026-05-06 16:36 31.13609 51.21574 30412 ft 454 kts 317°
2026-05-06 16:36 31.18868 51.17490 30413 ft 454 kts 317°
2026-05-06 16:37 31.24143 51.13390 30416 ft 455 kts 317°
2026-05-06 16:37 31.29418 51.09283 30416 ft 455 kts 317°
2026-05-06 16:38 31.33799 51.05869 30420 ft 456 kts 317°
2026-05-06 16:38 31.39951 51.01071 30416 ft 455 kts 317°
2026-05-06 16:39 31.45241 50.96935 30412 ft 456 kts 317°
2026-05-06 16:39 31.49659 50.93477 30419 ft 457 kts 317°
2026-05-06 16:40 31.54928 50.89350 30408 ft 457 kts 317°
2026-05-06 16:40 31.60214 50.85202 30434 ft 457 kts 317°
2026-05-06 16:41 31.65502 50.81047 30449 ft 455 kts 317°
2026-05-06 16:41 31.70766 50.76907 30475 ft 455 kts 317°
2026-05-06 16:42 31.76057 50.72737 30487 ft 456 kts 317°
2026-05-06 16:42 31.81327 50.68580 30498 ft 454 kts 317°
2026-05-06 16:43 31.86591 50.64421 30285 ft 457 kts 317°
2026-05-06 16:43 31.89218 50.62343 30056 ft 457 kts 317°
2026-05-06 16:43 31.92723 50.59567 29801 ft 457 kts 317°
2026-05-06 16:43 31.94494 50.58164 29657 ft 456 kts 317°
2026-05-06 16:44 31.97128 50.56077 29435 ft 459 kts 317°
2026-05-06 16:44 31.99761 50.53986 29217 ft 461 kts 317°
2026-05-06 16:44 32.02406 50.51886 29047 ft 459 kts 318°
2026-05-06 16:44 32.05064 50.49776 28828 ft 461 kts 318°
2026-05-06 16:45 32.08625 50.46940 28537 ft 462 kts 318°
2026-05-06 16:45 32.13055 50.43420 28435 ft 461 kts 318°
2026-05-06 16:46 32.19235 50.38500 28431 ft 461 kts 318°
2026-05-06 16:46 32.24571 50.34239 28443 ft 461 kts 317°
2026-05-06 16:47 32.28981 50.30715 28440 ft 462 kts 317°
2026-05-06 16:47 32.34307 50.26453 28432 ft 461 kts 318°
2026-05-06 16:48 32.40500 50.21487 28424 ft 460 kts 318°
2026-05-06 16:48 32.44911 50.17947 28420 ft 462 kts 317°
2026-05-06 16:49 32.50221 50.13679 28420 ft 460 kts 317°
2026-05-06 16:49 32.55492 50.09439 28420 ft 458 kts 317°
2026-05-06 16:50 32.60756 50.05193 28435 ft 460 kts 317°
2026-05-06 16:50 32.66033 50.00935 28435 ft 458 kts 317°
2026-05-06 16:51 32.71312 49.96668 28447 ft 457 kts 317°
2026-05-06 16:51 32.76566 49.92413 28451 ft 457 kts 317°
2026-05-06 16:52 32.82705 49.87437 28436 ft 460 kts 317°
2026-05-06 16:52 32.87112 49.83852 28430 ft 462 kts 317°
2026-05-06 16:53 32.92360 49.79588 28428 ft 459 kts 318°
2026-05-06 16:53 32.97642 49.75284 28421 ft 460 kts 318°
2026-05-06 16:54 33.02913 49.70983 28431 ft 459 kts 318°
2026-05-06 16:54 33.08160 49.66697 28440 ft 459 kts 318°
2026-05-06 16:55 33.13454 49.62359 28409 ft 461 kts 318°
2026-05-06 16:55 33.18719 49.58045 28397 ft 461 kts 318°
2026-05-06 16:56 33.23992 49.53698 28414 ft 460 kts 318°
2026-05-06 16:56 33.29234 49.49344 28413 ft 461 kts 318°
2026-05-06 16:57 33.35376 49.44227 28381 ft 461 kts 317°
2026-05-06 16:57 33.39753 49.40577 28364 ft 461 kts 318°
2026-05-06 16:58 33.45014 49.36180 28343 ft 461 kts 318°
2026-05-06 16:58 33.50296 49.31760 28331 ft 460 kts 317°
2026-05-06 16:59 33.55523 49.27382 28328 ft 460 kts 317°
2026-05-06 16:59 33.60754 49.22993 28313 ft 460 kts 317°
2026-05-06 17:00 33.65990 49.18590 28308 ft 461 kts 317°
2026-05-06 17:00 33.71216 49.14192 28302 ft 460 kts 316°
2026-05-06 17:01 33.77365 49.09005 28302 ft 461 kts 317°
2026-05-06 17:01 33.81706 49.05341 28302 ft 459 kts 317°
2026-05-06 17:02 33.86947 49.00907 28305 ft 458 kts 316°
2026-05-06 17:02 33.92143 48.96508 28308 ft 459 kts 316°
2026-05-06 17:03 33.97342 48.92096 28307 ft 458 kts 316°
2026-05-06 17:03 34.02554 48.87666 28307 ft 458 kts 316°
2026-05-06 17:04 34.07760 48.83235 28296 ft 460 kts 317°
2026-05-06 17:04 34.13011 48.78761 28283 ft 460 kts 316°
2026-05-06 17:05 34.18218 48.74314 28283 ft 460 kts 317°
2026-05-06 17:05 34.23461 48.69835 28271 ft 461 kts 316°
2026-05-06 17:06 34.28676 48.65369 28264 ft 461 kts 317°
2026-05-06 17:06 34.33921 48.60871 28263 ft 461 kts 317°
2026-05-06 17:07 34.39125 48.56404 28258 ft 462 kts 316°
2026-05-06 17:07 34.44355 48.51904 28259 ft 462 kts 316°
2026-05-06 17:08 34.49609 48.47377 28257 ft 462 kts 317°
2026-05-06 17:08 34.54810 48.42890 28253 ft 463 kts 316°
2026-05-06 17:09 34.60054 48.38356 28240 ft 463 kts 317°
2026-05-06 17:09 34.65287 48.33827 28233 ft 462 kts 316°
2026-05-06 17:10 34.70509 48.29298 28239 ft 460 kts 316°
2026-05-06 17:10 34.75713 48.24780 28235 ft 460 kts 316°
2026-05-06 17:11 34.80918 48.20247 28227 ft 461 kts 316°
2026-05-06 17:11 34.86109 48.15726 28221 ft 461 kts 316°
2026-05-06 17:12 34.91338 48.11161 28213 ft 462 kts 316°
2026-05-06 17:12 34.96529 48.06622 28209 ft 462 kts 316°
2026-05-06 17:13 35.01741 48.02056 28202 ft 462 kts 316°
2026-05-06 17:13 35.06945 47.97488 28205 ft 462 kts 316°
2026-05-06 17:14 35.12299 47.92970 28200 ft 467 kts 319°
2026-05-06 17:14 35.17764 47.88743 28197 ft 466 kts 320°
2026-05-06 17:15 35.23249 47.84512 28198 ft 465 kts 320°
2026-05-06 17:15 35.28687 47.80297 28197 ft 465 kts 320°
2026-05-06 17:16 35.34157 47.76047 28195 ft 464 kts 320°
2026-05-06 17:16 35.39584 47.71822 28195 ft 465 kts 319°
2026-05-06 17:17 35.45041 47.67565 28195 ft 465 kts 319°
2026-05-06 17:17 35.50512 47.63291 28192 ft 466 kts 319°
2026-05-06 17:18 35.55988 47.59007 28190 ft 468 kts 319°
2026-05-06 17:18 35.61467 47.54713 28189 ft 468 kts 319°
2026-05-06 17:19 35.66952 47.50404 28190 ft 468 kts 319°
2026-05-06 17:19 35.72422 47.46104 28189 ft 468 kts 319°
2026-05-06 17:20 35.77879 47.41805 28187 ft 468 kts 319°
2026-05-06 17:20 35.83375 47.37468 28185 ft 468 kts 319°
2026-05-06 17:21 35.88844 47.33145 28188 ft 467 kts 318°
2026-05-06 17:21 35.94290 47.28833 28191 ft 467 kts 318°
2026-05-06 17:22 35.99745 47.24504 28184 ft 467 kts 318°
2026-05-06 17:22 36.05215 47.20157 28176 ft 467 kts 318°
2026-05-06 17:23 36.10659 47.15823 28174 ft 468 kts 318°
2026-05-06 17:23 36.16124 47.11459 28171 ft 467 kts 318°
2026-05-06 17:24 36.21584 47.07101 28178 ft 468 kts 318°
2026-05-06 17:24 36.27050 47.02752 28180 ft 468 kts 318°
2026-05-06 17:25 36.32525 46.98385 28185 ft 469 kts 318°
2026-05-06 17:25 36.37998 46.94004 28184 ft 469 kts 318°
2026-05-06 17:26 36.43466 46.89621 28170 ft 468 kts 318°
2026-05-06 17:26 36.48906 46.85250 28172 ft 468 kts 319°
2026-05-06 17:27 36.54374 46.80849 28174 ft 469 kts 319°
2026-05-06 17:27 36.59843 46.76442 28169 ft 469 kts 319°
2026-05-06 17:28 36.65313 46.72024 28165 ft 468 kts 319°
2026-05-06 17:28 36.70775 46.67607 28157 ft 468 kts 319°
2026-05-06 17:29 36.76242 46.63179 28160 ft 469 kts 319°
2026-05-06 17:29 36.81681 46.58763 28160 ft 468 kts 319°
2026-05-06 17:30 36.87143 46.54324 28168 ft 468 kts 319°
2026-05-06 17:30 36.92564 46.49906 28162 ft 468 kts 319°
2026-05-06 17:31 36.98032 46.45446 28152 ft 468 kts 319°
2026-05-06 17:31 37.03443 46.41022 28145 ft 468 kts 319°
2026-05-06 17:32 37.08904 46.36550 28129 ft 468 kts 319°
2026-05-06 17:32 37.14364 46.32071 28125 ft 468 kts 318°
2026-05-06 17:33 37.19802 46.27601 28105 ft 468 kts 318°
2026-05-06 17:33 37.25219 46.23141 28092 ft 468 kts 318°
2026-05-06 17:34 37.30632 46.18676 28080 ft 468 kts 318°
2026-05-06 17:34 37.36069 46.14186 28073 ft 467 kts 319°
2026-05-06 17:35 37.41491 46.09698 28067 ft 468 kts 319°
2026-05-06 17:35 37.46914 46.05197 28072 ft 468 kts 319°
2026-05-06 17:36 37.55059 45.98424 28075 ft 468 kts 319°
2026-05-06 17:36 37.60556 45.93957 28080 ft 472 kts 322°
2026-05-06 17:37 37.66414 45.90140 28079 ft 480 kts 328°
2026-05-06 17:37 37.72557 45.86826 28087 ft 481 kts 329°
2026-05-06 17:38 37.78735 45.83544 28097 ft 481 kts 330°
2026-05-06 17:38 37.84879 45.80260 28093 ft 482 kts 330°
2026-05-06 17:39 37.91056 45.76945 28076 ft 483 kts 330°
2026-05-06 17:39 37.97242 45.73622 28085 ft 482 kts 330°
2026-05-06 17:40 38.03411 45.70296 28084 ft 482 kts 330°
2026-05-06 17:40 38.09545 45.66982 28084 ft 482 kts 330°
2026-05-06 17:41 38.15745 45.63627 28092 ft 482 kts 330°
2026-05-06 17:41 38.21901 45.60289 28098 ft 482 kts 330°
2026-05-06 17:42 38.28037 45.56953 28106 ft 481 kts 330°
2026-05-06 17:42 38.34208 45.53590 28107 ft 482 kts 330°
2026-05-06 17:43 38.40204 45.50002 28086 ft 469 kts 318°
2026-05-06 17:43 38.42644 45.47302 28092 ft 456 kts 305°
2026-05-06 17:43 38.44455 45.44099 28091 ft 444 kts 292°
2026-05-06 17:44 38.47139 45.37067 28096 ft 440 kts 289°
2026-05-06 17:44 38.49821 45.29991 28091 ft 441 kts 289°
2026-05-06 17:45 38.52511 45.22960 28087 ft 443 kts 289°
2026-05-06 17:45 38.55209 45.15896 28085 ft 443 kts 289°
2026-05-06 17:46 38.57886 45.08869 28085 ft 443 kts 289°
2026-05-06 17:46 38.60582 45.01774 28092 ft 443 kts 289°
2026-05-06 17:47 38.63253 44.94722 28100 ft 443 kts 289°
2026-05-06 17:47 38.65923 44.87661 28119 ft 442 kts 289°
2026-05-06 17:48 38.68602 44.80561 28117 ft 443 kts 289°
2026-05-06 17:48 38.71233 44.73565 28132 ft 443 kts 289°
2026-05-06 17:49 38.73884 44.66508 28130 ft 437 kts 290°
2026-05-06 17:49 38.76502 44.59517 28124 ft 437 kts 289°
2026-05-06 17:50 38.79137 44.52462 28132 ft 437 kts 290°
2026-05-06 17:50 38.81770 44.45395 28132 ft 438 kts 290°
2026-05-06 17:51 38.84392 44.38336 28143 ft 438 kts 290°
2026-05-06 17:51 38.87009 44.31276 28143 ft 438 kts 289°
2026-05-06 17:52 38.89626 44.24197 28124 ft 438 kts 290°
2026-05-06 17:52 38.92222 44.17168 28137 ft 438 kts 290°
2026-05-06 17:53 38.94828 44.10080 28155 ft 438 kts 290°
2026-05-06 17:53 38.97418 44.03002 28152 ft 439 kts 290°
2026-05-06 17:54 38.99996 43.95945 28148 ft 439 kts 290°
2026-05-06 17:54 39.02590 43.88819 28138 ft 440 kts 290°
2026-05-06 17:55 39.05177 43.81694 28118 ft 440 kts 290°
2026-05-06 17:55 39.07753 43.74580 28120 ft 441 kts 290°
2026-05-06 17:56 39.10348 43.67399 28117 ft 442 kts 290°
2026-05-06 17:56 39.12936 43.60222 28123 ft 442 kts 290°
2026-05-06 17:57 39.14236 43.56603 28114 ft 453 kts 291°
2026-05-06 17:57 39.15568 43.52893 28108 ft 458 kts 291°
2026-05-06 17:57 39.18245 43.45433 28101 ft 460 kts 291°
2026-05-06 17:58 39.20911 43.37989 28099 ft 460 kts 291°
2026-05-06 17:58 39.23589 43.30492 28110 ft 460 kts 290°
2026-05-06 17:59 39.26262 43.22979 28109 ft 464 kts 290°
2026-05-06 17:59 39.28937 43.15442 28095 ft 466 kts 290°
2026-05-06 18:00 39.31639 43.07815 28096 ft 467 kts 290°
2026-05-06 18:00 39.34330 43.00194 28108 ft 468 kts 290°
2026-05-06 18:01 39.37009 42.92591 28100 ft 468 kts 290°
2026-05-06 18:01 39.39683 42.84981 28124 ft 468 kts 290°
2026-05-06 18:02 39.42371 42.77313 28120 ft 467 kts 290°
2026-05-06 18:02 39.45045 42.69662 28130 ft 467 kts 290°
2026-05-06 18:03 39.47713 42.62011 28141 ft 467 kts 290°
2026-05-06 18:03 39.50357 42.54406 28135 ft 466 kts 290°
2026-05-06 18:04 39.53008 42.46756 28136 ft 466 kts 290°
2026-05-06 18:04 39.55653 42.39106 28122 ft 467 kts 290°
2026-05-06 18:05 39.58295 42.31447 28130 ft 466 kts 290°
2026-05-06 18:05 39.60941 42.23752 28126 ft 466 kts 290°
2026-05-06 18:06 39.63564 42.16107 28099 ft 466 kts 290°
2026-05-06 18:06 39.66183 42.08447 28108 ft 468 kts 290°
2026-05-06 18:07 39.68804 42.00767 28097 ft 468 kts 290°
2026-05-06 18:07 39.71431 41.93048 28082 ft 467 kts 290°
2026-05-06 18:08 39.74051 41.85329 28091 ft 467 kts 290°
2026-05-06 18:08 39.76661 41.77615 28077 ft 468 kts 290°
2026-05-06 18:09 39.79276 41.69867 28077 ft 468 kts 290°
2026-05-06 18:09 39.81884 41.62115 28078 ft 469 kts 290°
2026-05-06 18:10 39.84487 41.54360 28074 ft 470 kts 290°
2026-05-06 18:10 39.87096 41.46560 28091 ft 471 kts 290°
2026-05-06 18:11 39.89700 41.38749 28086 ft 471 kts 290°
2026-05-06 18:11 39.92300 41.30932 28100 ft 471 kts 290°
2026-05-06 18:12 39.94891 41.23114 28105 ft 471 kts 290°
2026-05-06 18:12 39.97424 41.15235 28104 ft 472 kts 289°
2026-05-06 18:13 39.99866 41.07307 28115 ft 472 kts 288°
2026-05-06 18:13 40.02300 40.99373 28107 ft 473 kts 289°
2026-05-06 18:14 40.04750 40.91389 28113 ft 475 kts 288°
2026-05-06 18:14 40.07189 40.83421 28099 ft 474 kts 289°
2026-05-06 18:15 40.09648 40.75361 28091 ft 477 kts 289°
2026-05-06 18:15 40.12102 40.67300 28097 ft 477 kts 289°
2026-05-06 18:16 40.14557 40.59213 28092 ft 478 kts 289°
2026-05-06 18:16 40.17003 40.51132 28104 ft 479 kts 289°
2026-05-06 18:17 40.19458 40.42990 28100 ft 481 kts 289°
2026-05-06 18:17 40.21913 40.34828 28099 ft 482 kts 288°
2026-05-06 18:18 40.24347 40.26712 28118 ft 483 kts 288°
2026-05-06 18:18 40.26801 40.18499 28121 ft 483 kts 289°
2026-05-06 18:19 40.29221 40.10373 28130 ft 483 kts 289°
2026-05-06 18:19 40.31664 40.02149 28123 ft 484 kts 289°
2026-05-06 18:20 40.34097 39.93929 28114 ft 485 kts 289°
2026-05-06 18:20 40.36517 39.85729 28102 ft 485 kts 289°
2026-05-06 18:21 40.38939 39.77484 28115 ft 486 kts 289°
2026-05-06 18:21 40.41367 39.69199 28109 ft 486 kts 289°
2026-05-06 18:22 40.43770 39.60988 28113 ft 479 kts 289°
2026-05-06 18:22 40.46138 39.52846 28156 ft 481 kts 289°
2026-05-06 18:23 40.47322 39.48762 28456 ft 482 kts 289°
2026-05-06 18:23 40.48510 39.44656 28870 ft 484 kts 289°
2026-05-06 18:23 40.49688 39.40576 29381 ft 483 kts 289°
2026-05-06 18:23 40.50884 39.36428 29872 ft 482 kts 289°
2026-05-06 18:24 40.52062 39.32329 30363 ft 480 kts 289°
2026-05-06 18:24 40.53225 39.28286 30754 ft 479 kts 289°
2026-05-06 18:24 40.54406 39.24169 31114 ft 477 kts 289°
2026-05-06 18:24 40.55570 39.20101 31510 ft 475 kts 289°
2026-05-06 18:25 40.56714 39.16093 31865 ft 473 kts 289°
2026-05-06 18:25 40.57875 39.12020 32241 ft 471 kts 290°
2026-05-06 18:25 40.59003 39.08046 32623 ft 469 kts 290°
2026-05-06 18:25 40.60150 39.04020 33017 ft 467 kts 290°
2026-05-06 18:26 40.61282 39.00046 33390 ft 464 kts 289°
2026-05-06 18:26 40.62404 38.96090 33812 ft 461 kts 289°
2026-05-06 18:26 40.63507 38.92187 34087 ft 464 kts 289°
2026-05-06 18:26 40.64633 38.88194 34124 ft 470 kts 289°
2026-05-06 18:27 40.66850 38.80243 34135 ft 449 kts 289°
2026-05-06 18:27 40.68979 38.72553 34137 ft 444 kts 289°
2026-05-06 18:28 40.71070 38.64980 34142 ft 442 kts 289°
2026-05-06 18:28 40.73156 38.57399 34148 ft 442 kts 289°
2026-05-06 18:29 40.75236 38.49813 34147 ft 443 kts 290°
2026-05-06 18:29 40.77328 38.42162 34145 ft 444 kts 290°
2026-05-06 18:30 40.79423 38.34478 34143 ft 444 kts 289°
2026-05-06 18:30 40.81486 38.26886 34140 ft 444 kts 289°
2026-05-06 18:31 40.83564 38.19221 34138 ft 445 kts 289°
2026-05-06 18:31 40.85649 38.11512 34139 ft 445 kts 289°
2026-05-06 18:32 40.87707 38.03871 34141 ft 445 kts 290°
2026-05-06 18:32 40.89782 37.96137 34149 ft 440 kts 290°
2026-05-06 18:33 40.91808 37.88567 34153 ft 440 kts 290°
2026-05-06 18:33 40.93848 37.80929 34152 ft 440 kts 290°
2026-05-06 18:34 40.95874 37.73318 34145 ft 441 kts 290°
2026-05-06 18:34 40.97889 37.65718 34157 ft 440 kts 290°
2026-05-06 18:35 40.99913 37.58059 34161 ft 440 kts 290°
2026-05-06 18:35 41.01918 37.50454 34158 ft 439 kts 290°
2026-05-06 18:36 41.03920 37.42833 34160 ft 439 kts 290°
2026-05-06 18:36 41.05907 37.35249 34151 ft 440 kts 290°
2026-05-06 18:37 41.07909 37.27579 34160 ft 440 kts 290°
2026-05-06 18:37 41.09892 37.19958 34151 ft 439 kts 290°
2026-05-06 18:38 41.11873 37.12325 34149 ft 439 kts 290°
2026-05-06 18:38 41.13846 37.04696 34157 ft 438 kts 290°
2026-05-06 18:39 41.15812 36.97074 34157 ft 438 kts 290°
2026-05-06 18:40 41.18756 36.85612 34153 ft 438 kts 290°
2026-05-06 18:40 41.20712 36.77949 34151 ft 439 kts 290°
2026-05-06 18:41 41.22668 36.70272 34151 ft 439 kts 290°
2026-05-06 18:41 41.24609 36.62620 34152 ft 439 kts 290°
2026-05-06 18:42 41.26548 36.54961 34160 ft 439 kts 290°
2026-05-06 18:42 41.28517 36.47279 34153 ft 439 kts 290°
2026-05-06 18:43 41.30481 36.39608 34156 ft 438 kts 290°
2026-05-06 18:43 41.32420 36.31995 34153 ft 438 kts 290°
2026-05-06 18:44 41.34365 36.24323 34154 ft 438 kts 290°
2026-05-06 18:44 41.36301 36.16666 34148 ft 438 kts 290°
2026-05-06 18:45 41.38235 36.08986 34152 ft 439 kts 290°
2026-05-06 18:45 41.40178 36.01243 34151 ft 439 kts 290°
2026-05-06 18:46 41.42090 35.93596 34150 ft 439 kts 290°
2026-05-06 18:46 41.44020 35.85853 34149 ft 439 kts 290°
2026-05-06 18:47 41.45921 35.78204 34147 ft 438 kts 290°
2026-05-06 18:47 41.47834 35.70484 34145 ft 437 kts 290°
2026-05-06 18:48 41.49730 35.62807 34138 ft 438 kts 291°
2026-05-06 18:48 41.51615 35.55141 34136 ft 438 kts 291°
2026-05-06 18:49 41.53516 35.47391 34132 ft 439 kts 291°
2026-05-06 18:49 41.55398 35.39695 34132 ft 439 kts 291°
2026-05-06 18:50 41.57287 35.31947 34133 ft 439 kts 290°
2026-05-06 18:50 41.59163 35.24217 34135 ft 439 kts 290°
2026-05-06 18:51 41.61031 35.16496 34136 ft 438 kts 290°
2026-05-06 18:51 41.62891 35.08783 34128 ft 439 kts 291°
2026-05-06 18:52 41.64755 35.01028 34125 ft 440 kts 291°
2026-05-06 18:52 41.66607 34.93298 34125 ft 440 kts 291°
2026-05-06 18:53 41.68456 34.85550 34123 ft 438 kts 291°
2026-05-06 18:53 41.70298 34.77806 34129 ft 438 kts 291°
2026-05-06 18:54 41.72134 34.70049 34125 ft 438 kts 291°
2026-05-06 18:54 41.73964 34.62291 34121 ft 438 kts 291°
2026-05-06 18:55 41.75798 34.54529 34129 ft 439 kts 291°
2026-05-06 18:55 41.77632 34.46742 34117 ft 438 kts 291°
2026-05-06 18:56 41.79437 34.39032 34125 ft 437 kts 291°
2026-05-06 18:56 41.81252 34.31245 34128 ft 437 kts 290°
2026-05-06 18:57 41.83053 34.23497 34121 ft 437 kts 290°
2026-05-06 18:57 41.84854 34.15722 34118 ft 438 kts 290°
2026-05-06 18:58 41.86644 34.07961 34127 ft 438 kts 290°
2026-05-06 18:58 41.88422 34.00214 34126 ft 436 kts 290°
2026-05-06 18:59 41.90192 33.92477 34126 ft 435 kts 290°
2026-05-06 18:59 41.91952 33.84761 34123 ft 435 kts 290°
2026-05-06 19:00 41.93712 33.77008 34119 ft 434 kts 290°
2026-05-06 19:00 41.95426 33.69252 34122 ft 435 kts 289°
2026-05-06 19:01 41.96952 33.61433 34127 ft 435 kts 289°
2026-05-06 19:01 41.98463 33.53579 34120 ft 434 kts 288°
2026-05-06 19:02 41.99966 33.45739 34120 ft 433 kts 289°
2026-05-06 19:02 42.01456 33.37929 34119 ft 433 kts 289°
2026-05-06 19:03 42.02941 33.30120 34127 ft 434 kts 288°
2026-05-06 19:03 42.04421 33.22300 34117 ft 433 kts 288°
2026-05-06 19:04 42.05902 33.14438 34132 ft 433 kts 288°
2026-05-06 19:04 42.07377 33.06627 34115 ft 433 kts 289°
2026-05-06 19:05 42.08976 32.98842 34123 ft 432 kts 290°
2026-05-06 19:05 42.10570 32.91115 34131 ft 432 kts 290°
2026-05-06 19:06 42.12160 32.83329 34124 ft 433 kts 290°
2026-05-06 19:06 42.13747 32.75504 34129 ft 432 kts 290°
2026-05-06 19:07 42.15307 32.67761 34130 ft 432 kts 290°
2026-05-06 19:07 42.16874 32.59972 34124 ft 432 kts 290°
2026-05-06 19:08 42.18441 32.52172 34124 ft 432 kts 290°
2026-05-06 19:08 42.19988 32.44415 34117 ft 431 kts 290°
2026-05-06 19:09 42.21538 32.36601 34119 ft 432 kts 290°
2026-05-06 19:09 42.23074 32.28821 34120 ft 432 kts 289°
2026-05-06 19:10 42.24616 32.20987 34120 ft 432 kts 289°
2026-05-06 19:10 42.26145 32.13162 34114 ft 432 kts 289°
2026-05-06 19:11 42.27674 32.05381 34123 ft 432 kts 289°
2026-05-06 19:11 42.29203 31.97576 34125 ft 431 kts 289°
2026-05-06 19:12 42.30724 31.89772 34118 ft 432 kts 289°
2026-05-06 19:12 42.32245 31.81923 34110 ft 431 kts 289°
2026-05-06 19:13 42.33749 31.74126 34108 ft 432 kts 289°
2026-05-06 19:13 42.35254 31.66288 34112 ft 433 kts 289°
2026-05-06 19:14 42.36757 31.58429 34109 ft 432 kts 289°
2026-05-06 19:14 42.38251 31.50587 34120 ft 432 kts 289°
2026-05-06 19:15 42.39743 31.42721 34112 ft 433 kts 289°
2026-05-06 19:15 42.41227 31.34868 34108 ft 433 kts 288°
2026-05-06 19:16 42.42706 31.26999 34109 ft 433 kts 288°
2026-05-06 19:16 42.44181 31.19109 34104 ft 433 kts 288°
2026-05-06 19:17 42.45654 31.11206 34110 ft 439 kts 288°
2026-05-06 19:17 42.47163 31.03138 34112 ft 445 kts 288°
2026-05-06 19:18 42.48661 30.95052 34111 ft 447 kts 288°
2026-05-06 19:18 42.50161 30.86901 34106 ft 446 kts 288°
2026-05-06 19:19 42.51651 30.78753 34109 ft 446 kts 288°
2026-05-06 19:19 42.53128 30.70654 34111 ft 445 kts 288°
2026-05-06 19:20 42.54603 30.62525 34106 ft 445 kts 288°
2026-05-06 19:20 42.56070 30.54405 34107 ft 445 kts 288°
2026-05-06 19:21 42.57526 30.46298 34103 ft 445 kts 288°
2026-05-06 19:21 42.59000 30.38190 34103 ft 443 kts 290°
2026-05-06 19:22 42.61332 30.30576 34108 ft 436 kts 302°
2026-05-06 19:22 42.64820 30.23899 34105 ft 431 kts 314°
2026-05-06 19:23 42.69200 30.18510 34105 ft 428 kts 325°
2026-05-06 19:23 42.74030 30.13742 34105 ft 428 kts 326°
2026-05-06 19:24 42.78852 30.09029 34107 ft 428 kts 326°
2026-05-06 19:24 42.83666 30.04309 34105 ft 428 kts 326°
2026-05-06 19:25 42.88462 29.99588 34109 ft 428 kts 326°
2026-05-06 19:25 42.93276 29.94837 34109 ft 428 kts 326°
2026-05-06 19:26 42.98078 29.90086 34111 ft 427 kts 326°
2026-05-06 19:26 43.02891 29.85315 34110 ft 428 kts 326°
2026-05-06 19:27 43.07681 29.80558 34112 ft 428 kts 326°
2026-05-06 19:27 43.12481 29.75783 34116 ft 428 kts 326°
2026-05-06 19:28 43.17287 29.70992 34113 ft 428 kts 326°
2026-05-06 19:28 43.22098 29.66187 34113 ft 429 kts 326°
2026-05-06 19:29 43.26851 29.61431 34115 ft 437 kts 326°
2026-05-06 19:29 43.31775 29.56491 34111 ft 441 kts 326°
2026-05-06 19:30 43.36710 29.51530 34114 ft 440 kts 326°
2026-05-06 19:30 43.41660 29.46543 34110 ft 441 kts 326°
2026-05-06 19:31 43.46586 29.41572 34111 ft 441 kts 326°
2026-05-06 19:31 43.53981 29.34086 34111 ft 441 kts 325°
2026-05-06 19:32 43.58927 29.29064 34115 ft 445 kts 325°
2026-05-06 19:32 43.63895 29.24007 34111 ft 445 kts 325°
2026-05-06 19:33 43.68832 29.18971 34113 ft 445 kts 325°
2026-05-06 19:33 43.73864 29.14022 34114 ft 444 kts 328°
2026-05-06 19:34 43.79123 29.09583 34113 ft 443 kts 330°
2026-05-06 19:34 43.84404 29.05220 34106 ft 444 kts 330°
2026-05-06 19:35 43.89679 29.00846 34112 ft 444 kts 330°
2026-05-06 19:35 43.94969 28.96444 34112 ft 443 kts 330°
2026-05-06 19:36 44.00236 28.92049 34108 ft 443 kts 330°
2026-05-06 19:36 44.05519 28.87632 34108 ft 443 kts 330°
2026-05-06 19:37 44.10801 28.83209 34110 ft 447 kts 330°
2026-05-06 19:37 44.16142 28.78726 34105 ft 448 kts 330°
2026-05-06 19:38 44.21479 28.74236 34102 ft 448 kts 330°
2026-05-06 19:38 44.26802 28.69746 34099 ft 448 kts 330°
2026-05-06 19:39 44.32085 28.65281 34098 ft 448 kts 330°
2026-05-06 19:39 44.37420 28.60764 34095 ft 447 kts 330°
2026-05-06 19:40 44.42709 28.56274 34095 ft 447 kts 330°
2026-05-06 19:40 44.48020 28.51755 34093 ft 447 kts 330°
2026-05-06 19:41 44.53341 28.47220 34091 ft 447 kts 330°
2026-05-06 19:41 44.58607 28.42721 34089 ft 446 kts 330°
2026-05-06 19:42 44.63895 28.38195 34086 ft 446 kts 330°
2026-05-06 19:42 44.69175 28.33666 34082 ft 446 kts 329°
2026-05-06 19:43 44.74462 28.29118 34083 ft 446 kts 329°
2026-05-06 19:43 44.79758 28.24553 34078 ft 445 kts 329°
2026-05-06 19:44 44.84981 28.20041 34075 ft 444 kts 329°
2026-05-06 19:44 44.90254 28.15476 34075 ft 444 kts 329°
2026-05-06 19:45 44.95487 28.10935 34072 ft 444 kts 329°
2026-05-06 19:45 45.00734 28.06369 34073 ft 444 kts 329°
2026-05-06 19:46 45.05986 28.01786 34070 ft 443 kts 329°
2026-05-06 19:46 45.11211 27.97177 34073 ft 443 kts 327°
2026-05-06 19:47 45.16127 27.91877 34071 ft 445 kts 321°
2026-05-06 19:47 45.20510 27.85766 34070 ft 446 kts 314°
2026-05-06 19:48 45.24358 27.78830 34069 ft 449 kts 307°
2026-05-06 19:48 45.27802 27.71364 34067 ft 458 kts 306°
2026-05-06 19:49 45.31259 27.63726 34067 ft 460 kts 306°
2026-05-06 19:49 45.34692 27.56119 34067 ft 460 kts 306°
2026-05-06 19:50 45.38136 27.48470 34065 ft 459 kts 305°
2026-05-06 19:50 45.41552 27.40867 34063 ft 459 kts 305°
2026-05-06 19:51 45.44983 27.33204 34063 ft 458 kts 304°
2026-05-06 19:51 45.48391 27.25577 34060 ft 458 kts 304°
2026-05-06 19:52 45.51812 27.17901 34057 ft 458 kts 304°
2026-05-06 19:52 45.55204 27.10271 34056 ft 457 kts 304°
2026-05-06 19:53 45.58592 27.02625 34058 ft 457 kts 304°
2026-05-06 19:53 45.62004 26.94906 34055 ft 457 kts 304°
2026-05-06 19:54 45.65374 26.87263 34049 ft 457 kts 304°
2026-05-06 19:54 45.68755 26.79570 34050 ft 457 kts 304°
2026-05-06 19:55 45.72121 26.71892 34057 ft 458 kts 304°
2026-05-06 19:55 45.75512 26.64136 34064 ft 457 kts 304°
2026-05-06 19:56 45.78872 26.56432 34073 ft 457 kts 304°
2026-05-06 19:56 45.82206 26.48763 34086 ft 456 kts 304°
2026-05-06 19:57 45.85545 26.41067 34084 ft 456 kts 304°
2026-05-06 19:57 45.88871 26.33375 34077 ft 455 kts 303°
2026-05-06 19:58 45.92209 26.25630 34068 ft 455 kts 303°
2026-05-06 19:58 45.95520 26.17928 34055 ft 456 kts 303°
2026-05-06 19:59 45.98849 26.10170 34049 ft 451 kts 303°
2026-05-06 19:59 46.02125 26.02509 34050 ft 450 kts 303°
2026-05-06 20:00 46.05403 25.94822 34051 ft 450 kts 303°
2026-05-06 20:00 46.08664 25.87157 34053 ft 450 kts 303°
2026-05-06 20:01 46.11890 25.79554 34058 ft 444 kts 303°
2026-05-06 20:01 46.15087 25.71993 34066 ft 443 kts 303°
2026-05-06 20:02 46.18303 25.64368 34069 ft 442 kts 303°
2026-05-06 20:02 46.21491 25.56787 33914 ft 443 kts 303°
2026-05-06 20:03 46.23105 25.52940 33292 ft 443 kts 303°
2026-05-06 20:03 46.24706 25.49127 32266 ft 449 kts 303°
2026-05-06 20:03 46.26344 25.45220 31314 ft 453 kts 303°
2026-05-06 20:03 46.27974 25.41323 30636 ft 452 kts 302°
2026-05-06 20:04 46.29590 25.37448 30000 ft 450 kts 302°
2026-05-06 20:04 46.31218 25.33539 29324 ft 450 kts 301°
2026-05-06 20:04 46.32848 25.29619 28603 ft 451 kts 301°
2026-05-06 20:04 46.34477 25.25697 27869 ft 452 kts 301°
2026-05-06 20:05 46.36121 25.21733 27354 ft 448 kts 301°
2026-05-06 20:05 46.37723 25.17862 26801 ft 445 kts 301°
2026-05-06 20:05 46.39302 25.14040 26293 ft 442 kts 301°
2026-05-06 20:05 46.40894 25.10179 25818 ft 438 kts 301°
2026-05-06 20:06 46.42457 25.06386 25356 ft 434 kts 301°
2026-05-06 20:06 46.44009 25.02620 24898 ft 430 kts 301°
2026-05-06 20:06 46.45446 24.98755 24417 ft 427 kts 293°
2026-05-06 20:06 46.46347 24.94668 23980 ft 424 kts 283°
2026-05-06 20:07 46.46715 24.90454 23537 ft 421 kts 272°
2026-05-06 20:07 46.46650 24.86171 23109 ft 418 kts 268°
2026-05-06 20:07 46.46505 24.81996 22675 ft 415 kts 269°
2026-05-06 20:07 46.46615 24.77811 22225 ft 412 kts 277°
2026-05-06 20:08 46.47134 24.73689 21791 ft 409 kts 284°
2026-05-06 20:08 46.48015 24.69754 21341 ft 406 kts 290°
2026-05-06 20:08 46.49046 24.65932 20901 ft 403 kts 291°
2026-05-06 20:08 46.50081 24.62188 20485 ft 401 kts 291°
2026-05-06 20:09 46.51135 24.58370 20068 ft 399 kts 291°
2026-05-06 20:09 46.52175 24.54582 19629 ft 418 kts 291°
2026-05-06 20:09 46.53254 24.50634 19159 ft 423 kts 291°
2026-05-06 20:09 46.54346 24.46632 18694 ft 422 kts 291°
2026-05-06 20:10 46.55424 24.42662 18237 ft 421 kts 291°
2026-05-06 20:10 46.56502 24.38684 17786 ft 419 kts 291°
2026-05-06 20:10 46.57554 24.34786 17345 ft 416 kts 290°
2026-05-06 20:10 46.58614 24.30851 16913 ft 413 kts 290°
2026-05-06 20:11 46.59660 24.26964 16470 ft 409 kts 290°
2026-05-06 20:11 46.60692 24.23131 16035 ft 406 kts 290°
2026-05-06 20:11 46.61715 24.19318 15593 ft 403 kts 290°
2026-05-06 20:11 46.62769 24.15581 15149 ft 400 kts 295°
2026-05-06 20:12 46.64337 24.12228 14714 ft 400 kts 310°
2026-05-06 20:12 46.66393 24.09546 14278 ft 399 kts 323°
2026-05-06 20:12 46.68706 24.07278 13849 ft 396 kts 324°
2026-05-06 20:12 46.71006 24.05084 13418 ft 393 kts 324°
2026-05-06 20:13 46.73294 24.02883 12998 ft 390 kts 324°
2026-05-06 20:13 46.75559 24.00615 12548 ft 386 kts 319°
2026-05-06 20:13 46.77280 23.97707 12101 ft 377 kts 298°
2026-05-06 20:13 46.78213 23.94200 11687 ft 369 kts 280°
2026-05-06 20:14 46.78649 23.90539 11297 ft 365 kts 277°
2026-05-06 20:14 46.79060 23.86903 10882 ft 362 kts 277°
2026-05-06 20:14 46.79480 23.83300 10472 ft 359 kts 278°
2026-05-06 20:14 46.79953 23.79705 10064 ft 357 kts 281°
2026-05-06 20:15 46.80587 23.76166 9794 ft 365 kts 285°
2026-05-06 20:15 46.81337 23.72617 9891 ft 355 kts 285°
2026-05-06 20:15 46.82067 23.69223 9910 ft 338 kts 285°
2026-05-06 20:15 46.82752 23.66034 9928 ft 322 kts 285°
2026-05-06 20:16 46.83403 23.62983 9945 ft 305 kts 285°
2026-05-06 20:16 46.84026 23.60061 9961 ft 290 kts 284°
2026-05-06 20:16 46.84605 23.57331 9966 ft 275 kts 284°
2026-05-06 20:16 46.85164 23.54663 9975 ft 268 kts 281°
2026-05-06 20:17 46.85368 23.52002 9974 ft 263 kts 263°
2026-05-06 20:17 46.85029 23.49389 9975 ft 259 kts 250°
2026-05-06 20:17 46.84456 23.46877 9740 ft 261 kts 249°
2026-05-06 20:17 46.83863 23.44365 9467 ft 258 kts 249°
2026-05-06 20:18 46.83283 23.41897 9170 ft 256 kts 249°
2026-05-06 20:18 46.82709 23.39426 8876 ft 255 kts 249°
2026-05-06 20:18 46.82145 23.36976 8595 ft 252 kts 249°
2026-05-06 20:18 46.81597 23.34585 8363 ft 248 kts 249°
2026-05-06 20:19 46.81051 23.32206 8082 ft 246 kts 249°
2026-05-06 20:19 46.80503 23.29816 7790 ft 244 kts 249°
2026-05-06 20:19 46.79965 23.27471 7535 ft 241 kts 249°
2026-05-06 20:19 46.79428 23.25136 7512 ft 242 kts 247°
2026-05-06 20:20 46.78594 23.23137 7390 ft 229 kts 216°
2026-05-06 20:20 46.77175 23.22186 7303 ft 217 kts 187°
2026-05-06 20:20 46.75698 23.22358 7063 ft 216 kts 163°
2026-05-06 20:20 46.74278 23.23073 6814 ft 215 kts 163°
2026-05-06 20:21 46.72894 23.23923 6544 ft 216 kts 144°
2026-05-06 20:21 46.71941 23.25620 6256 ft 221 kts 113°
2026-05-06 20:21 46.71623 23.27814 5986 ft 223 kts 98°
2026-05-06 20:21 46.71461 23.30068 5747 ft 222 kts 98°
2026-05-06 20:22 46.71299 23.32308 5499 ft 221 kts 98°
2026-05-06 20:22 46.71202 23.34519 5242 ft 222 kts 88°
2026-05-06 20:22 46.71493 23.36743 4956 ft 221 kts 75°
2026-05-06 20:22 46.71970 23.38853 4661 ft 218 kts 72°
2026-05-06 20:23 46.72466 23.40917 4397 ft 213 kts 72°
2026-05-06 20:23 46.72948 23.42948 4203 ft 204 kts 72°
2026-05-06 20:23 46.73393 23.44854 4074 ft 199 kts 72°
2026-05-06 20:23 46.73835 23.46773 4024 ft 198 kts 73°
2026-05-06 20:24 46.74266 23.48650 4001 ft 189 kts 73°
2026-05-06 20:24 46.74672 23.50421 3991 ft 180 kts 73°
2026-05-06 20:24 46.75065 23.52127 3755 ft 177 kts 73°
2026-05-06 20:24 46.75467 23.53819 3378 ft 175 kts 72°
2026-05-06 20:25 46.75861 23.55481 2948 ft 172 kts 73°
2026-05-06 20:25 46.76212 23.57119 2549 ft 168 kts 71°
2026-05-06 20:25 46.76570 23.58728 2228 ft 165 kts 71°
2026-05-06 20:25 46.76931 23.60309 2013 ft 165 kts 70°
2026-05-06 20:26 46.77299 23.61882 1812 ft 164 kts 71°
2026-05-06 20:26 46.77640 23.63463 1612 ft 164 kts 73°
2026-05-06 20:26 46.77990 23.65046 1363 ft 163 kts 71°
2026-05-06 20:26 46.78344 23.66612 1122 ft 162 kts 71°
2026-05-06 20:27 46.78672 23.68084 1037 ft 122 kts 72°
2026-05-06 20:27 46.78840 23.68845 1034 ft 43 kts 72°
2026-05-06 20:27 46.78894 23.69098 1031 ft 14 kts 90°
2026-05-06 20:27 46.78840 23.69202 1030 ft 13 kts 160°
2026-05-06 20:28 46.78790 23.69223 1030 ft 7 kts 162°
2026-05-06 20:28 46.78732 23.69251 1031 ft 7 kts 162°
2026-05-06 20:28 46.78675 23.69279 1031 ft 8 kts 162°
2026-05-06 20:28 46.78645 23.69294 1031 ft 5 kts 161°
2026-05-06 20:29 46.78598 23.69318 1032 ft 8 kts 161°
2026-05-06 20:29 46.78570 23.69331 1032 ft 0 kts 172°
2026-05-06 20:30 46.78559 23.69331 1032 ft 1 kts 194°
2026-05-06 20:30 46.78547 23.69315 1033 ft 3 kts 243°
2026-05-06 20:31 46.78541 23.69285 1033 ft 0 kts 257°
2026-05-06 20:37 46.78542 23.69291 1033 ft 2 kts 257°
2026-05-06 20:37 46.78546 23.69313 1033 ft 2 kts 266°
2026-05-06 20:38 46.78542 23.69334 1032 ft 2 kts 307°
2026-05-06 20:38 46.78531 23.69348 1033 ft 2 kts 340°
2026-05-06 20:38 46.78517 23.69352 1033 ft 2 kts 351°
2026-05-06 20:38 46.78502 23.69356 1033 ft 2 kts 347°
2026-05-06 20:39 46.78487 23.69362 1033 ft 2 kts 345°
2026-05-06 20:39 46.78473 23.69368 1033 ft 2 kts 345°
2026-05-06 20:39 46.78470 23.69369 1033 ft 0 kts 345°
2026-05-06 20:40 46.78468 23.69370 1033 ft 0 kts 345°
2026-05-06 20:41 46.78459 23.69373 1033 ft 0 kts 348°
2026-05-06 20:41 46.78452 23.69375 1033 ft 0 kts 346°